Home > Weather > Tartu > Past weeks

Flag for Estonia Past Weather in Tartu, Estonia — Yesterday and Last 2 Weeks

Now
75 °F

Passing clouds.


Feels Like: 77 °F
Forecast: 57 / 74 °F
Wind: 15 mph from Southwest

Location: Tartu/Ulenurme

Current Time: Aug 26, 2016 at 3:22:00 PM

Latest Report: Aug 26, 2016 at 2:50 PM


Visibility: N/A

Pressure: 30.09 "Hg

Humidity: 61%

Dew Point: 61 °F

Location of TartuLocation

Past Weather in Tartu — Graph

°F

Tartu Temperature Yesterday

Maximum temperature yesterday: 73 °F (at 3:50 PM)
Minimum temperature yesterday: 50 °F (at 2:50 AM)
Average temperature yesterday: 62 °F

High & Low Weather Summary for the Past Weeks

 TemperatureHumidityPressure
High79 °F (Aug 21, 3:50 PM)100% (Aug 17, 7:50 AM)30.24 "Hg (Aug 17, 7:50 AM)
Low45 °F (Aug 12, 5:50 AM)42% (Aug 21, 1:50 PM)29.59 "Hg (Aug 16, 10:50 PM)
Average61 °F79%29.98 "Hg
* Reported Aug 11 1:50 PM — Aug 26 1:50 PM, Tartu, Weather by CustomWeather, © 2016

Note: Actual official high and low records may vary slightly from our data, if they occured in-between our weather recording intervals... More about our weather records

Advertising

Tartu Weather History for the Previous 24 Hours

Scroll right to see more
 ConditionsComfort  
Time TempWeatherWind HumidityBarometerVisibility
1:50 PM
Fri, Aug 26
73 °FSunny.13 mph65%30.09 "Hg10 mi
12:50 PM73 °FSunny.17 mph61%30.09 "Hg10 mi
11:50 AM70 °FPassing clouds.14 mph69%30.07 "HgN/A
10:50 AM66 °FSunny.12 mph73%30.09 "Hg10 mi
9:50 AM66 °FSunny.13 mph73%30.09 "Hg10 mi
8:50 AM64 °FSunny.12 mph78%30.12 "Hg10 mi
7:50 AM63 °FMild.10 mph83%30.12 "HgN/A
6:50 AM61 °FPassing clouds.10 mph83%30.12 "HgN/A
5:50 AM63 °FPassing clouds.12 mph83%30.12 "HgN/A
4:50 AM63 °FMostly cloudy.9 mph83%30.12 "HgN/A
3:50 AM63 °FPassing clouds.10 mph83%30.12 "HgN/A
2:50 AM63 °FPassing clouds.8 mph83%30.12 "HgN/A
1:50 AM63 °FPassing clouds.8 mph83%30.12 "HgN/A
12:50 AM63 °FPassing clouds.7 mph83%30.15 "HgN/A
11:50 PM
Thu, Aug 25
63 °FOvercast.6 mph83%30.15 "HgN/A
10:50 PM63 °FMild.5 mph77%30.18 "HgN/A
9:50 PM63 °FMild.7 mph77%30.18 "HgN/A
8:50 PM66 °FOvercast.8 mph68%30.18 "HgN/A
7:50 PM66 °FBroken clouds.12 mph68%30.18 "HgN/A
6:50 PM68 °FPassing clouds.10 mph64%30.18 "HgN/A
5:50 PM72 °FPassing clouds.10 mph61%30.18 "HgN/A
4:50 PM72 °FPassing clouds.13 mph57%30.18 "HgN/A
3:50 PM73 °FScattered clouds.13 mph53%30.18 "HgN/A
Weather by CustomWeather, © 2016

See weather overviewHow to use our weather pages